Wind_Gust
27 27 27 28 25 23 23 23 24 24 25 23 21 21 21 19 17 16 16 16 15 17 16 17 21 24 21 23 21 21 16 17 23 27 20 22 21 19 19 16 15 17
27 27 25 26 26 24 25 23 22 24 23 22 20 19 19 18 17 17 16 16 16 15 15 21 21 22 24 21 23 21 19 17 19 16 21 19 21 18 20 19 18 16
27 26 26 25 27 25 25 23 22 22 22 22 19 19 19 17 18 17 16 16 15 14 14 19 20 21 21 23 24 22 18 16 16 14 20 23 17 15 12 11 11 13
28 27 27 26 26 26 25 24 22 22 21 22 21 20 19 17 17 17 15 14 15 14 13 14 17 16 18 22 23 22 18 16 15 17 16 17 15 14 11 10 12 12
28 29 26 26 25 25 25 24 24 22 22 21 20 19 19 17 17 16 17 16 15 14 13 13 13 16 17 16 17 13 14 15 15 17 18 17 14 15 16 15 14 15
29 29 28 27 26 26 27 26 25 23 23 21 21 20 19 19 19 19 16 16 16 15 14 13 12 11 13 12 11 12 13 15 16 16 19 19 19 18 17 16 15 14
27 27 27 28 26 25 25 25 24 22 23 22 22 21 22 22 21 22 20 17 16 16 15 14 13 12 12 12 12 14 14 15 16 18 19 19 19 18 17 17 18 17
27 27 29 26 25 26 25 25 24 24 23 23 22 22 25 23 23 21 19 19 16 17 15 15 14 14 13 14 15 15 14 17 17 19 18 18 17 17 16 17 16 18
28 27 27 26 27 27 27 27 25 24 25 25 24 25 22 23 23 22 20 19 17 16 16 15 15 15 14 16 17 16 17 16 15 17 16 17 17 17 18 18 18 18
28 28 27 28 28 28 27 25 26 25 25 25 26 25 27 22 22 22 20 19 17 17 17 16 16 16 16 16 17 16 16 16 14 14 14 15 16 17 18 18 18 17
28 28 29 29 28 27 27 27 25 26 25 25 24 25 23 22 22 20 21 20 19 20 19 17 17 18 17 17 15 14 15 15 15 15 15 16 16 20 13 16 16 16
30 29 30 31 30 28 28 27 26 24 25 25 25 27 25 24 23 24 22 21 20 20 21 18 18 18 18 18 16 15 14 13 13 14 15 16 16 15 15 13 15 14
31 29 31 30 30 28 28 28 28 26 27 27 25 25 26 25 24 22 20 21 20 19 21 20 19 19 19 17 16 16 15 15 14 15 14 13 14 14 14 13 13 14
30 30 29 30 29 30 28 27 28 28 28 26 26 27 26 26 26 23 20 21 19 19 18 17 18 19 18 17 17 17 16 16 16 15 16 15 13 13 13 13 12 13
30 30 29 30 29 28 29 29 29 28 28 27 25 26 27 26 24 23 23 22 21 19 19 18 19 19 19 19 19 18 17 16 17 17 17 17 15 14 14 14 14 13
31 29 31 32 31 31 32 28 29 29 29 28 28 28 25 25 26 23 23 22 22 21 19 19 19 17 13 15 10 17 18 18 17 17 17 17 16 16 15 15 15 13
32 31 32 33 32 31 29 30 30 29 30 30 29 27 26 23 23 24 23 22 23 21 20 19 19 15 17 16 10 7 17 16 16 17 16 16 17 16 15 15 14 14
33 32 32 33 34 32 32 32 30 29 29 30 30 29 27 27 24 25 23 22 22 21 20 20 16 13 16 15 15 10 8 14 16 16 16 16 16 16 16 15 14 14
32 33 34 34 34 33 31 31 31 30 30 30 30 29 27 25 25 25 24 23 22 22 21 20 17 15 16 15 15 13 9 8 17 15 16 16 15 16 16 15 14 14
34 34 34 34 33 32 33 31 30 30 28 28 27 26 27 25 25 25 23 23 23 22 21 20 18 15 17 15 14 14 9 10 14 15 15 16 16 15 14 14 14 14
35 35 35 34 32 32 31 32 31 30 30 28 30 30 30 31 28 26 24 23 23 22 21 20 18 17 18 16 14 13 11 9 13 15 15 14 15 14 13 13 13 13
35 35 35 35 32 32 32 33 30 31 30 27 28 29 28 27 26 25 24 25 23 23 22 21 18 19 18 17 16 13 12 15 15 15 14 15 15 14 14 13 13 13
35 35 35 36 34 34 33 33 32 32 30 29 29 28 29 27 26 25 26 26 25 24 24 22 19 17 18 18 17 15 12 17 15 16 15 14 14 14 14 13 13 13
35 35 33 34 34 36 35 32 31 31 31 31 31 29 28 27 24 27 27 27 26 25 26 22 21 18 18 18 17 16 15 17 17 16 15 15 14 13 13 14 16 16
35 35 34 34 35 35 33 33 33 32 30 30 28 28 29 28 26 26 27 28 26 25 19 23 22 19 18 18 18 18 19 17 18 17 17 16 16 16 13 14 15 12
32 33 32 34 34 31 31 33 31 30 30 29 27 29 29 28 27 27 27 27 26 25 22 22 23 22 22 19 19 19 19 18 17 17 17 17 15 17 15 13 15 16
Wind_Speed
10 9 10 8 8 8 9 9 8 9 9 9 8 8 8 8 8 7 7 5 6 6 6 5 3 3 3 3 4 4 3 1 1 1 2 3 3 3 7 7 7 10
11 10 9 7 7 8 9 9 9 9 10 9 7 8 7 8 7 7 6 6 6 6 8 6 4 4 4 3 3 5 4 3 2 1 2 2 3 3 4 8 9 8
11 11 11 10 9 10 10 9 8 8 9 9 8 8 7 7 7 7 7 6 6 6 7 10 6 5 3 2 2 2 6 5 3 4 4 3 4 4 2 3 4 6
11 11 11 10 9 9 10 9 8 7 8 9 8 8 7 7 7 7 6 7 5 5 4 7 9 6 4 2 3 3 1 0 1 1 1 2 1 1 5 4 4 5
12 12 11 10 9 9 9 10 10 9 10 9 8 8 7 7 8 7 6 6 5 5 5 3 7 8 7 5 4 3 2 2 1 1 0 0 1 1 5 5 5 5
11 11 11 11 10 9 10 11 10 9 9 9 9 8 7 8 8 8 7 7 5 6 6 5 4 5 7 7 6 3 1 1 2 2 2 1 2 2 3 5 5 6
12 12 12 11 11 10 9 11 9 9 8 8 8 8 8 8 8 8 8 7 6 6 7 6 5 5 5 5 4 4 3 1 0 2 3 2 0 2 5 7 7 8
13 11 11 11 11 10 9 10 10 9 8 8 9 8 9 9 10 8 8 8 7 7 7 8 7 6 6 4 4 4 4 3 2 4 4 1 2 3 1 4 6 9
12 12 11 11 11 10 10 10 9 9 8 9 9 9 9 9 9 8 9 9 8 7 7 8 7 7 6 6 5 6 6 6 5 5 5 3 2 3 3 3 2 4
12 13 14 13 12 11 12 11 9 9 9 10 10 9 10 10 7 9 9 8 8 8 8 8 8 6 6 6 7 7 7 8 6 6 6 5 4 5 4 5 4 4
12 12 14 14 12 11 12 11 10 9 9 10 9 10 9 10 9 10 9 9 8 9 9 9 7 8 7 7 7 7 8 7 5 5 4 5 7 5 4 6 4 4
12 12 14 14 13 11 12 11 11 10 10 9 10 11 10 10 10 10 9 9 9 9 10 9 8 8 7 7 7 7 6 6 6 5 5 7 7 5 2 6 5 3
13 12 12 13 12 11 10 10 10 11 11 11 10 10 11 10 9 10 9 9 10 9 10 9 8 9 7 7 6 8 6 7 7 6 5 3 2 5 3 2 1 2
14 13 12 13 12 11 11 11 10 10 10 10 10 11 11 11 11 10 9 8 8 8 9 9 10 10 9 8 6 6 4 4 3 4 3 2 3 3 3 2 1 2
13 12 11 12 13 12 12 12 11 11 11 10 10 10 9 11 9 10 10 10 10 8 9 8 9 9 7 8 6 7 6 5 3 3 3 3 2 3 3 3 2 3
13 12 13 13 14 13 13 12 11 12 11 10 11 10 10 9 10 9 9 9 10 9 7 8 7 7 9 14 9 6 7 5 4 4 4 4 3 3 3 3 3 4
13 13 14 14 14 13 13 12 13 12 12 12 12 11 11 10 10 11 10 10 10 9 7 8 6 5 15 15 9 5 9 5 6 5 7 5 5 4 4 5 4 6
14 14 15 15 14 14 14 13 12 12 12 12 12 12 11 10 11 11 12 9 8 9 7 7 7 11 14 14 14 9 6 5 5 6 6 6 5 5 5 5 5 6
14 15 16 15 15 15 13 13 13 14 13 13 13 11 11 11 12 11 11 8 9 9 9 8 8 13 14 14 13 12 8 4 6 5 6 6 5 6 6 5 4 6
15 14 15 15 15 14 13 14 14 14 13 12 11 11 11 10 10 11 10 10 9 9 9 8 9 12 15 13 12 13 9 3 4 5 5 5 6 6 5 5 5 6
16 16 15 15 15 14 14 14 14 14 13 12 11 11 11 12 11 11 9 9 8 9 8 9 8 14 15 14 13 12 10 4 2 5 4 5 5 4 5 5 5 6
16 15 15 14 15 14 16 15 14 14 14 12 10 10 10 10 9 10 11 10 9 10 9 10 9 15 16 15 14 12 10 4 2 5 4 5 4 4 4 4 4 5
15 15 15 15 15 15 16 15 14 14 13 11 11 11 11 11 10 9 10 10 10 9 10 10 8 11 15 15 15 14 8 4 3 4 4 5 4 4 3 4 3 3
14 15 14 15 15 16 16 14 13 12 12 12 12 12 12 11 9 8 9 9 10 10 11 12 9 10 14 15 15 14 10 5 4 5 5 5 5 4 4 5 7 10
14 14 14 15 16 15 14 14 15 14 12 11 11 11 10 10 8 8 8 8 9 9 15 15 8 10 12 15 15 14 11 5 6 5 6 5 5 5 4 6 4 6
12 13 13 14 15 15 13 13 12 11 12 12 11 10 10 10 9 9 10 9 8 10 11 13 10 8 11 16 15 15 15 7 5 5 7 6 5 6 5 6 5 4
Wind_Direction
185 189 187 187 176 173 179 179 180 175 182 185 184 184 183 182 175 181 186 184 178 170 140 173 214 228 181 162 138 138 171 203 254 213 208 214 228 199 162 135 174 203
188 187 188 186 175 173 182 181 180 179 182 184 184 176 179 173 172 172 177 179 171 172 140 160 190 231 248 212 158 139 149 144 189 231 240 223 227 227 190 167 163 179
189 185 188 193 186 177 177 184 180 178 178 183 183 172 168 167 169 169 169 173 173 172 153 159 178 190 232 294 293 177 144 150 177 205 214 221 205 214 153 138 131 160
193 186 188 196 190 179 172 178 180 183 177 185 181 165 165 166 166 166 162 168 160 156 155 153 163 174 176 220 274 300 331 128 174 130 233 202 170 140 114 105 114 119
191 186 189 194 190 180 173 179 183 187 185 182 169 160 165 164 162 162 163 160 158 157 143 155 148 162 176 185 189 246 276 274 50 68 314 294 91 158 124 136 133 127
191 188 188 191 192 185 177 180 185 186 179 173 172 163 168 161 160 158 158 161 167 152 147 150 137 139 153 157 176 169 118 345 354 351 292 234 169 127 157 151 147 127
188 187 187 189 191 191 182 177 182 185 182 175 168 169 159 153 159 156 164 166 162 156 161 145 141 149 132 136 152 152 145 140 192 260 265 253 317 107 232 154 151 138
188 187 185 188 189 190 188 179 179 183 181 173 176 164 159 156 163 167 163 170 165 166 164 150 157 156 145 151 161 152 158 166 176 226 243 204 112 227 245 81 144 148
185 184 186 187 187 188 188 184 178 180 174 176 173 164 160 161 176 158 161 171 169 171 162 164 163 156 159 164 172 170 174 178 198 205 221 157 189 205 188 147 168 150
186 181 184 186 187 186 185 183 180 180 171 175 174 169 166 167 168 158 175 178 167 169 167 161 161 149 161 177 177 179 177 185 199 200 204 171 195 209 186 153 168 160
189 181 181 183 185 183 182 181 181 179 172 175 174 171 172 163 164 175 175 178 172 169 163 164 157 158 172 186 181 179 183 174 191 202 181 168 212 207 196 146 168 195
187 183 180 180 182 181 181 183 179 180 172 177 176 171 170 168 170 178 174 179 165 174 163 168 166 162 174 191 181 177 183 165 183 188 198 194 217 197 154 148 164 163
184 185 178 178 180 178 177 182 179 176 174 177 176 171 167 171 176 176 171 176 182 174 172 171 163 160 172 193 187 176 184 169 187 178 206 203 150 117 126 97 101 119
182 183 179 178 177 175 178 181 177 175 174 174 169 170 169 175 181 176 170 185 176 181 176 169 159 165 174 187 187 163 170 163 187 157 176 109 95 89 90 105 132 112
180 180 176 174 173 176 179 182 177 173 173 174 168 170 169 178 177 177 175 185 173 184 179 166 161 165 175 174 177 157 161 169 172 149 125 108 105 132 121 140 148 114
180 178 176 173 176 178 182 179 175 172 176 169 171 169 173 173 176 180 179 182 179 181 170 162 160 174 157 162 159 160 160 173 156 157 143 139 171 153 159 159 154 95
180 180 176 177 177 178 179 179 176 174 173 169 171 172 174 181 174 180 177 194 185 178 168 154 152 126 147 147 135 170 163 160 169 160 136 165 181 167 173 176 162 129
180 178 178 178 177 178 179 176 170 167 171 170 169 171 173 180 183 183 185 191 170 179 157 148 117 136 134 135 121 109 115 154 136 131 154 171 180 170 180 182 166 134
176 179 181 178 177 178 175 171 168 171 172 169 171 172 173 186 189 181 185 179 172 168 154 137 128 136 132 130 126 115 89 117 136 161 165 169 174 177 180 178 149 134
178 177 183 180 178 177 170 172 170 175 171 167 166 171 178 188 187 186 175 175 174 154 147 131 129 141 136 135 128 122 113 103 159 166 168 168 175 177 171 173 151 149
178 178 182 181 178 170 165 169 170 170 170 171 170 175 182 192 183 181 174 175 163 150 138 139 143 148 140 139 136 127 125 103 240 153 176 170 172 177 163 164 154 160
175 178 181 181 178 169 169 171 175 174 171 170 168 174 186 187 183 176 175 174 164 149 138 140 145 153 145 144 143 136 126 156 232 159 184 160 165 160 153 154 160 163
174 178 181 181 176 170 171 171 174 171 170 166 169 178 182 183 183 175 169 168 161 151 137 138 136 160 149 149 146 142 140 190 194 167 177 148 157 153 147 151 167 170
174 179 180 180 177 173 171 170 171 170 170 166 172 174 176 180 175 174 167 166 163 152 139 140 140 159 158 150 147 153 165 193 178 178 161 152 150 157 143 94 74 64
178 180 180 177 175 173 173 168 171 171 167 165 167 170 169 172 172 173 169 163 167 143 138 141 132 157 167 152 152 166 180 220 179 181 153 156 152 161 147 113 88 68
183 180 177 173 170 169 168 168 163 159 162 168 168 169 169 173 172 169 169 166 159 135 143 141 132 138 170 160 160 177 193 212 196 157 161 157 158 167 161 132 123 97